Regional Weather Roundup
Issued by NWS Newport/Morehead, NC

Current Version | Previous Version | Graphics & Text | Print | Product List | Glossary Off
Versions: 1 2 3 4 5 6 7 8 9 10 11 12 13 14 15 16 17 18 19 20 21 22 23 24 25 26 27 28 29 30 31 32 33 34 35 36 37 38 39 40 41 42 43 44 45 46 47 48 49 50

529
ASUS42 KMHX 010913
RWRMHX
WEATHER ROUNDUP FOR EASTERN NORTH CAROLINA
NATIONAL WEATHER SERVICE NEWPORT/MOREHEAD CITY NC
400 AM EST WED MAR 01 2017

NOTE: "FAIR" INDICATES FEW OR NO CLOUDS BELOW 12,000 FEET
WITH NO SIGNIFICANT WEATHER AND/OR OBSTRUCTIONS TO VISIBILITY

NCZ015>017-031-032-045>047-102-103-011000-
NORTH COAST

CITY           SKY/WX    TMP DP  RH WIND       PRES   REMARKS
EDENTON        CLOUDY    67  63  87 SW9       30.04S
ELIZABETH CITY PTCLDY    65  63  93 S12       30.02F
KITTY HAWK     NOT AVBL
MANTEO         MOCLDY    64  63  99 SW15      30.05F

$$

NCZ045>047-081-094-103-104-011000-
CENTRAL COAST

CITY           SKY/WX    TMP DP  RH WIND       PRES   REMARKS
FRISCO         CLOUDY    70  66  87 SW14G24   30.08F FOG

$$

NCZ095-097-098-100-101-011000-
SOUTHERN COAST

CITY           SKY/WX    TMP DP  RH WIND       PRES   REMARKS
BEAUFORT       CLOUDY    67  66  97 SW14      30.10F
CEDAR ISLAND   NOT AVBL
JACKSONVILLE   CLOUDY    69  68  96 SW14G20   30.08S
PINEY ISLAND   CLOUDY   N/A N/A N/A S16G24    30.09F
WILMINGTON     CLOUDY    69  68  96 S13       30.09F


$$

NCZ011>013-027>030-043-044-078>080-089-090>093-098-011000-
COASTAL PLAIN

CITY           SKY/WX    TMP DP  RH WIND       PRES   REMARKS
AHOSKIE          N/A     64  62  92 S5        30.01F
CLINTON        CLOUDY    66  66  98 SW6       30.07F
ELIZABETHTOWN  MOCLDY    68  67  96 S10       30.08S
GOLDSBORO      PTCLDY    66  66 100 S9        30.03F
GREENVILLE     MOCLDY    66  64  94 SW8       30.06F
HAVELOCK       MOCLDY    68  64  88 SW14G22   30.09F
KENANSVILLE    CLOUDY    68  64  88 SW5       30.08S
KINSTON        NOT AVBL
NEW BERN       CLOUDY    69  67  93 SW14G21   30.09S
RICHLANDS      CLOUDY    67  65  93 SW10      30.08F
ROCKY MOUNT    PTCLDY    65  64  97 S8        30.03S
WASHINGTON     CLOUDY    67  64  90 SW9       30.05F
WHITEVILLE     CLOUDY    66  65  96 S5        30.09S

$$

AMZ130-135-150-152-154-156-158-170-250-252-270-ANZ085-086-088-633-658-670-011000-
MARINE OBSERVATIONS

STATION/POSITION TIME  TEMP    WIND        PRES    WAVE   SWELL
                       AIR SEA DIR/SP/G            HT/PER HT/PER
                 (UTC) (F)     (DEG/KT/KT) (MB)    (FT/S) (FT/S)
CHESAPEAKE LIGHT NOT AVBL
64 E VA BEACH    0850   57 52  200/ 16/ 17 1016.7    4/ 7   2/16
DUCK             0848   67 49  210/ 18/ 21 1016.3
2 E DUCK         0900      50                N/A     3/ 6
OREGON INLET     0842   63 63  200/ 19/ 21 1017.4
13E OREGON INLT  NOT AVBL
HATTERAS CG      0848   69 65  210/ 13/ 17 1018.4
DIAMOND BUOY     0850   73 74  200/ 25/ 31 1018.5    6/ 7   2/17
CAPE LOOKOUT     0900   67     200/ 14/ 18 1018.8
BEAUFORT LAB     0848   67 63  210/ 10/ 14 1018.3
30 SE NEW RVR IN 0808   66     200/ 12/ 16 1020.0
30 SE NEW RVR IN 0843      64                N/A     5/ 6
27 SE WRIGHTSVLE 0808   65 62  180/ 10/ 14 1019.6
5 SE WRIGHTSVLE  0808   62 59  190/ 12/ 16 1019.6
225 S CAPE HAT   0850   70 71  160/ 12/ 14 1024.0    4/ 7   3/ 7
41 SE CHARLESTON 0850   71 69  190/ 14/ 16 1019.7    5/ 6   2/ 8

$$




USA.gov is the U.S. government's official web portal to all federal, state and local government web resources and services.